Bangor, ME

7:08 PM EST on December 15, 2019 (GMT -0500)
Bangor International

Weather History for KBGR - October, 2019

Change the Weather History Date:

Friday, October 4, 2019

  Actual Average Record
Temperature  
Mean Temperature 45 °F 52 °F  
Max Temperature 51 °F 62 °F 79 °F (2017)
Min Temperature 38 °F 41 °F 27 °F (1942)
Degree Days  
Heating Degree Days 20 14  
Month to date heating degree days 65 52  
Since 1 July heating degree days 279 324  
Cooling Degree Days 0 0  
Month to date cooling degree days 0 0  
Year to date cooling degree days 336 317  
Moisture  
Dew Point 40 °F    
Average Humidity 73    
Maximum Humidity 92    
Minimum Humidity 54    
Precipitation  
Precipitation 0.25 in 0.14 in 1.78 in (1952)
Month to date precipitation 0.51 0.56  
Year to date precipitation 39.53 30.64  
Snow  
Snow 0.00 in 0.00 in 0.00 in (2002)
Month to date snowfall 0.0 0.0  
Since 1 July snowfall 0.0 0.0  
Since 1 September snowfall 0.0 0.0  
Snow Depth 0.00 in    
Sea Level Pressure  
Sea Level Pressure 30.02 in    
Wind  
Wind Speed 7 mph (NNW)    
Max Wind Speed 30 mph    
Max Gust Speed 40 mph    
Visibility 8 miles    
Events Rain    
T = Trace of Precipitation, MM = Missing Value Source: NWS Daily Summary

Daily Weather History Graph

Daily Weather History Graph

Search for Another Location

Airport or City:

Astronomy

Oct. 04, 2019 Rise Set
Actual Time 6:36 AM EDT 6:10 PM EDT
Civil Twilight 6:07 AM EDT 6:39 PM EDT
Nautical Twilight 5:33 AM EDT 7:13 PM EDT
Astronomical Twilight 4:59 AM EDT 7:47 PM EDT
Moon 1:19 PM EDT (10/4) 10:22 PM EDT (10/4)
Length of Visible Light 12h 32m
Length of Day
11h 34m
Waxing Crescent, 39% of the Moon is Illuminated
Oct 4
Waxing Crescent
Oct 5
First Quarter
Oct 13
Full
Oct 21
Last Quarter
Oct 27
New

Hourly Weather History & Observations

Time (EDT) Temp. Windchill Dew Point Humidity Pressure Visibility Wind Dir Wind Speed Gust Speed Precip Events Conditions
12:53 AM 46.0 °F 44.8 °F 41.0 °F 83% 30.01 in 10.0 mi South 3.5 mph - 0.00 in   Overcast
1:53 AM 46.0 °F 43.1 °F 41.0 °F 83% 29.99 in 10.0 mi South 5.8 mph - 0.00 in Rain Light Rain
2:53 AM 46.0 °F 43.9 °F 42.1 °F 86% 29.96 in 10.0 mi South 4.6 mph - 0.00 in   Light Drizzle
3:53 AM 45.0 °F - 43.0 °F 93% 29.95 in 6.0 mi Calm Calm - 0.00 in Rain Light Rain
4:35 AM 45.0 °F - 44.1 °F 97% 29.94 in 4.0 mi Calm Calm - 0.02 in Rain Light Rain
4:53 AM 44.1 °F 42.5 °F 42.1 °F 93% 29.94 in 2.0 mi SSE 3.5 mph - 0.04 in Rain Light Rain
5:53 AM 44.1 °F - 42.1 °F 93% 29.95 in 2.0 mi Calm Calm - 0.08 in Rain Rain
6:24 AM 44.1 °F - 43.0 °F 96% 29.95 in 2.0 mi Calm Calm - 0.03 in Rain Light Rain
6:53 AM 44.1 °F 40.1 °F 42.1 °F 93% 29.95 in 2.0 mi North 6.9 mph - 0.05 in Rain Light Rain
7:04 AM 44.1 °F 40.1 °F 42.1 °F 93% 29.95 in 1.5 mi NE 6.9 mph - 0.01 in Rain Rain
7:53 AM 44.1 °F 40.8 °F 42.1 °F 93% 29.96 in 3.0 mi NE 5.8 mph - 0.05 in Rain Light Rain
8:03 AM 44.1 °F 41.5 °F 43.0 °F 96% 29.96 in 3.0 mi NE 4.6 mph - 0.00 in Rain Light Rain
8:25 AM 44.1 °F 40.8 °F 43.0 °F 96% 29.96 in 3.0 mi NNE 5.8 mph - 0.00 in Rain Light Rain
8:53 AM 44.1 °F 40.8 °F 43.0 °F 96% 29.97 in 8.0 mi North 5.8 mph - 0.01 in Rain Light Rain
9:08 AM 45.0 °F 40.1 °F 43.0 °F 93% 29.97 in 10.0 mi North 9.2 mph - 0.00 in   Overcast
9:27 AM 46.0 °F 41.0 °F 43.0 °F 89% 29.97 in 10.0 mi North 10.4 mph - 0.00 in   Overcast
9:53 AM 46.0 °F 41.0 °F 42.1 °F 86% 29.97 in 10.0 mi North 10.4 mph - 0.00 in   Mostly Cloudy
10:16 AM 46.0 °F 39.9 °F 41.0 °F 83% 29.98 in 10.0 mi North 13.8 mph - N/A   Overcast
10:53 AM 46.9 °F - 43.0 °F 86% 29.99 in 10.0 mi NNW 11.5 mph - N/A   Overcast
11:53 AM 46.9 °F - 41.0 °F 80% 30.00 in 10.0 mi NNW 16.1 mph - N/A   Mostly Cloudy
12:53 PM 48.0 °F - 39.0 °F 71% 30.00 in 10.0 mi North 12.7 mph 20.7 mph N/A   Overcast
1:14 PM 50.0 °F - 39.9 °F 68% 30.00 in 10.0 mi NNW 12.7 mph - N/A   Mostly Cloudy
1:53 PM 48.9 °F - 39.9 °F 71% 30.01 in 10.0 mi North 16.1 mph 23.0 mph N/A   Mostly Cloudy
2:53 PM 51.1 °F - 35.1 °F 54% 30.02 in 10.0 mi NNW 16.1 mph 24.2 mph N/A   Mostly Cloudy
3:53 PM 51.1 °F - 37.0 °F 59% 30.04 in 10.0 mi NNW 18.4 mph - N/A   Mostly Cloudy
4:53 PM 46.0 °F 39.9 °F 39.9 °F 79% 30.09 in 10.0 mi NNW 13.8 mph - 0.01 in   Mostly Cloudy
5:53 PM 43.0 °F 36.8 °F 37.9 °F 82% 30.12 in 10.0 mi NNW 11.5 mph - 0.01 in   Mostly Cloudy
6:53 PM 42.1 °F 33.9 °F 35.1 °F 76% 30.15 in 10.0 mi NNW 17.3 mph - N/A   Partly Cloudy
7:53 PM 39.9 °F 35.1 °F 34.0 °F 79% 30.18 in 10.0 mi WNW 6.9 mph - N/A   Clear
8:53 PM 39.0 °F 34.0 °F 33.1 °F 79% 30.19 in 10.0 mi WNW 6.9 mph - N/A   Clear
9:53 PM 39.0 °F 33.4 °F 33.1 °F 79% 30.22 in 10.0 mi West 8.1 mph - N/A   Clear
10:53 PM 39.0 °F 33.4 °F 32.0 °F 76% 30.23 in 10.0 mi WNW 8.1 mph - N/A   Clear
11:53 PM 39.0 °F 32.3 °F 30.9 °F 73% 30.25 in 10.0 mi West 10.4 mph - N/A   Clear